TimeMST,TemperatureF,Dew PointF,Humidity,Sea Level PressureIn,VisibilityMPH,Wind Direction,Wind SpeedMPH,Gust SpeedMPH,PrecipitationIn,Events,Conditions,WindDirDegrees,DateUTC
12:53 AM,37.0,21.9,54,29.96,10.0,SW,18.4,-,N/A,,Clear,220,2013-01-26 07:53:00
1:53 AM,35.1,21.0,57,29.96,10.0,SW,17.3,-,N/A,,Clear,220,2013-01-26 08:53:00
2:53 AM,32.0,19.9,61,29.96,10.0,SW,10.4,-,N/A,,Clear,220,2013-01-26 09:53:00
3:53 AM,36.0,21.9,57,29.93,10.0,SW,21.9,31.1,N/A,,Clear,230,2013-01-26 10:53:00
4:53 AM,34.0,23.0,64,29.95,10.0,WSW,18.4,-,N/A,,Clear,240,2013-01-26 11:53:00
5:53 AM,35.1,23.0,61,29.98,10.0,SW,15.0,-,N/A,,Clear,230,2013-01-26 12:53:00
6:53 AM,35.1,24.1,64,29.98,10.0,SW,13.8,-,N/A,,Clear,220,2013-01-26 13:53:00
7:53 AM,35.1,25.0,67,29.97,10.0,SW,11.5,-,N/A,,Clear,220,2013-01-26 14:53:00
8:53 AM,41.0,26.1,55,29.94,10.0,SSW,20.7,28.8,N/A,,Clear,210,2013-01-26 15:53:00
9:53 AM,44.1,28.0,53,29.92,10.0,SW,23.0,31.1,N/A,,Clear,220,2013-01-26 16:53:00
10:53 AM,48.0,28.0,46,29.91,10.0,SW,21.9,27.6,N/A,,Clear,220,2013-01-26 17:53:00
11:53 AM,51.1,26.1,38,29.86,10.0,SW,21.9,28.8,N/A,,Clear,230,2013-01-26 18:53:00
12:53 PM,51.1,25.0,36,29.84,10.0,SW,18.4,28.8,N/A,,Clear,230,2013-01-26 19:53:00
1:53 PM,50.0,26.1,39,29.80,10.0,WSW,17.3,-,N/A,,Clear,240,2013-01-26 20:53:00
2:53 PM,51.1,25.0,36,29.81,10.0,WSW,16.1,-,N/A,,Clear,240,2013-01-26 21:53:00
3:53 PM,48.9,26.1,41,29.79,10.0,SW,19.6,25.3,N/A,,Clear,220,2013-01-26 22:53:00
4:53 PM,46.0,27.0,47,29.78,10.0,SSW,13.8,-,N/A,,Clear,200,2013-01-26 23:53:00
5:53 PM,43.0,27.0,53,29.78,10.0,SSW,12.7,-,N/A,,Clear,200,2013-01-27 00:53:00
6:53 PM,41.0,25.0,53,29.78,10.0,SW,9.2,-,N/A,,Clear,220,2013-01-27 01:53:00
7:53 PM,41.0,26.1,55,29.77,10.0,SW,10.4,-,N/A,,Clear,230,2013-01-27 02:53:00
8:53 PM,41.0,26.1,55,29.73,10.0,SSW,8.1,-,N/A,,Clear,210,2013-01-27 03:53:00
9:53 PM,39.9,26.1,58,29.72,10.0,SW,8.1,-,N/A,,Clear,230,2013-01-27 04:53:00
10:53 PM,39.9,26.1,58,29.69,10.0,WSW,10.4,-,N/A,,Mostly Cloudy,250,2013-01-27 05:53:00
11:53 PM,39.0,26.1,60,29.68,10.0,SW,10.4,-,N/A,,Mostly Cloudy,230,2013-01-27 06:53:00